COSMOS 1275 DEB, 42217

Orbit data source: Space-Track

COSMOS 1275 DEB, 42217 is space debris in LEO originally from a launch on Thu, 04 Jun 1981 UTC launched from the Plesetsk Missile And Space Complex (PKMTR). Debris objects in space refer to the collection of defunct objects orbiting the Earth. Examples of debris include non-operational satellites, rocket bodies, and fragments generated from explosions, collisions, or faulty payload assembly.

Loading next visibility...
Identifier
42217, 1981-053UH
Orbit
LEO
Country
Flag of CISCIS
Related business
Manufacturer
Unknown
Mission
Spacecraft
Bus & Motor
Unknown
Mass
Unknown
Launch date (UTC)
1981-06-04 (45 years ago)
Launch vehicle
Unknown
Launch site
Plesetsk Missile And Space Complex (PKMTR)
Object type
Payload
Rocket body
Debris
Shape & HBR
Unknown shape, 0.1 m
Radar Cross Section
Small (<0.1 m²)

Expand to show TLE details & history
Last TLE update: 19 hours ago

TLE from 19 hours ago
0 COSMOS 1275 DEB
1 42217U 81053UH  26118.77387618  .00001232  00000-0  12997-2 0  9996
2 42217  83.0333  44.5545 0123698  17.8457  11.2802 13.70655141620371
Epoch: 2026-04-28T18:34Z
TLE epoch observation values (Epoch: 2026-04-28T18:34:22.901Z)
Latitude
29.21681°
Longitude
-86.8873°
Altitude
911.4 km
Speed
7.444 km/s
True Right ascension
03h 13m 48s
True Declination
29° 04' 25"
Sunlit
Object was in daylight at epoch
Visualization orbit readout
Latitude
Unknown
Longitude
Unknown
Altitude
Unknown
Speed
Unknown
Apparent Right ascension
Unknown
Apparent Declination
Unknown
Sunlit
N/A
Visualization observer readout
Local Sidereal Time
20:53:23
Azimuth
Unknown
Elevation
Unknown
Doppler factor
Unknown
Orbital elements
Apogee altitude
1,085.567 km
Perigee altitude
903.174 km
Semi-major axis
7,372.508 km
Eccentricity
0.01237
Inclination
83.0333°
RAAN
44.5545°
Arg. of periapsis
17.8457°
True anomaly
11.56173°
Mean anomaly
11.2802°
Eccentric anomaly
11.42054°
Mean motion
3.42863 °/min
Orbital period
105 mins
BSTAR
0.0012997
Loading maneuver chart data...
Computing Atmospheric mass density...

Documentation

Showing up to 5 results
|